Hourly Data Report for October 05, 2013

All times are specified in Local Standard Time (LST). Add 1 hour to adjust for Daylight Saving Time where and when it is observed.

PETAWAWA AWOS 2
ONTARIO

45°57'00.000" N
77°19'00.000" W
130.10 m
6106396
71625
YWA

Download Data

Hourly Data (October 2013)
Hourly Data Report for October 5, 2013
Temp Definition
°C
Dew Point Temp Definition
°C
Rel Hum Definition
%
Wind Dir Definition
10's deg

Wind Spd Definition
km/h
Visibility Definition
km
Stn Press Definition
kPa
Hmdx Definition


Wind Chill Definition


Weather Definition


TIME
00:00 12.5 10.4 87 31 7 15.0 100.49      
01:00 12.9 9.9 82   0 15.0 100.54      
02:00 12.6 9.8 83 30 4 15.0 100.52      
03:00 13.0 8.9 76 31 6 15.0 100.54      
04:00 12.7 9.3 80 27 4 15.0 100.55      
05:00 12.7 8.6 76 32 6 15.0 100.54      
06:00 12.2 8.5 78 32 7 15.0 100.63      
07:00 12.9 7.8 71 33 4 15.0 100.60      
08:00 13.0 7.8 71 33 9 15.0 100.66      
09:00 13.4 7.8 69 33 13 15.0 100.71      
10:00 13.8 7.7 67 34 11 15.0 100.69      
11:00 14.9 6.9 59 35 9 15.0 100.64      
12:00 16.3 6.1 51 7 4 15.0 100.59      
13:00 16.9 5.5 47 34 11 15.0 100.54      
14:00 17.7 5.1 43 5 4 15.0 100.52      
15:00 18.4 5.1 42   0 15.0 100.45      
16:00 18.0 5.3 43 9 6 15.0 100.41      
17:00 16.3 7.2 55   0 15.0 100.40      
18:00 15.7 5.8 52 7 6 15.0 100.44      
19:00 15.6 5.4 51 3 9 15.0 100.52      
20:00 14.9 3.6 47 3 11 15.0 100.56      
21:00 14.2 2.7 46 2 7 15.0 100.60      
22:00 13.7 3.2 49 7 9 15.0 100.53      
23:00 13.4 2.6 48 9 9 15.0 100.52      

Notes on Data Quality.

Legend

  • E = Estimated
  • M = Missing
  • NA = Not Available
  • ‡ = Partner data that is not subject to review by the National Climate Archives
Date modified: